Terminal Aerodrome Forecast
Issued by NWS

Home | Current Version | Previous Version | Graphics & Text | Print | Product List | Glossary On
Versions: 1 2 3 4 5 6 7 8 9 10 11 12 13 14 15 16 17 18
000
FTUS41 KCLE 171732
TAFFDY
TAF
KFDY 171732Z 1718/1818 18004KT P6SM FEW050
     FM181000 00000KT 6SM BR BKN035
     FM181300 24005KT P6SM BKN040=

USA.gov is the U.S. government's official web portal to all federal, state and local government web resources and services.